| time (UTC) | temp F | wind direction | speed MPH | gust MPH | rain 1hr in | rain 24hr in | rain mn in | humidity % | barometer mb |
| 20260510174501 | 65 | 3 | 0.0 | 4.0 | 0.00 | 0.25 | 0.00 | 71 | 1013.4 |
| 20260510173105 | 66 | 358 | 3.0 | 8.0 | 0.00 | 0.25 | 0.00 | 66 | 1013.3 |
| 20260510171554 | 67 | 268 | 2.0 | 7.0 | 0.00 | 0.25 | 0.00 | 66 | 1013.1 |
| 20260510170045 | 67 | 353 | 2.0 | 11.0 | 0.00 | 0.25 | 0.00 | 68 | 1013.5 |
| 20260510164545 | 66 | 181 | 2.0 | 8.0 | 0.00 | 0.25 | 0.00 | 69 | 1013.3 |
| 20260510163033 | 64 | 356 | 3.0 | 9.0 | 0.00 | 0.25 | 0.00 | 72 | 1013.4 |
| 20260510161527 | 63 | 318 | 0.0 | 8.0 | 0.00 | 0.25 | 0.00 | 74 | 1013.5 |
| 20260510160025 | 64 | 316 | 3.0 | 8.0 | 0.00 | 0.27 | 0.00 | 73 | 1013.5 |
| 20260510154515 | 63 | 298 | 2.0 | 11.0 | 0.00 | 0.27 | 0.00 | 74 | 1013.7 |
| 20260510153009 | 64 | 297 | 3.0 | 9.0 | 0.00 | 0.27 | 0.00 | 72 | 1013.6 |
| 20260510151504 | 63 | 226 | 0.0 | 5.0 | 0.00 | 0.27 | 0.00 | 77 | 1013.5 |
| 20260510150057 | 62 | 281 | 1.0 | 8.0 | 0.00 | 0.27 | 0.00 | 77 | 1013.5 |
| 20260510144552 | 61 | 259 | 3.0 | 7.0 | 0.00 | 0.27 | 0.00 | 78 | 1013.5 |
| 20260510143045 | 59 | 137 | 1.0 | 9.0 | 0.00 | 0.27 | 0.00 | 78 | 1013.5 |
| 20260510141539 | 59 | 118 | 2.0 | 7.0 | 0.00 | 0.27 | 0.00 | 76 | 1013.6 |
| 20260510140033 | 58 | 145 | 3.0 | 8.0 | 0.00 | 0.27 | 0.00 | 71 | 1013.2 |
| 20260510134526 | 57 | 205 | 3.0 | 9.0 | 0.00 | 0.27 | 0.00 | 65 | 1013.6 |
| 20260510133035 | 57 | 158 | 1.0 | 6.0 | 0.00 | 0.27 | 0.00 | 56 | 1013.7 |
| 20260510131515 | 56 | 243 | 0.0 | 3.0 | 0.00 | 0.27 | 0.00 | 41 | 1013.6 |
| 20260510130010 | 53 | 97 | 0.0 | 3.0 | 0.00 | 0.27 | 0.00 | 1 | 1013.6 |
| 20260510124506 | 50 | 156 | 0.0 | 2.0 | 0.00 | 0.27 | 0.00 | 1 | 1013.4 |
| 20260510123110 | 49 | 138 | 0.0 | 2.0 | 0.00 | 0.27 | 0.00 | 1 | 1013.3 |
| 20260510121552 | 49 | 245 | 0.0 | 1.0 | 0.00 | 0.27 | 0.00 | 1 | 1013.1 |
| 20260510120046 | 48 | 153 | 0.0 | 2.0 | 0.00 | 0.28 | 0.00 | 1 | 1012.9 |
| 20260510114540 | 48 | 113 | 0.0 | 3.0 | 0.00 | 0.28 | 0.00 | 1 | 1012.8 |
| 20260510111528 | 47 | 155 | 2.0 | 5.0 | 0.00 | 0.28 | 0.00 | 1 | 1012.3 |
| 20260510110026 | 47 | 127 | 0.0 | 5.0 | 0.00 | 0.28 | 0.00 | 1 | 1012.2 |
| 20260510104515 | 0 | 0.0 | 0.0 | 0.00 | 0.28 | 0.00 | 1011.9 | ||
| 20260510103009 | 0 | 0.0 | 0.0 | 0.00 | 0.28 | 0.00 | 1011.5 | ||
| 20260510101505 | 0 | 0.0 | 0.0 | 0.00 | 0.28 | 0.00 | 1011.8 | ||
| 20260510100101 | 0 | 0.0 | 0.0 | 0.00 | 0.28 | 0.00 | 1011.5 | ||
| 20260510094555 | 0 | 0.0 | 0.0 | 0.00 | 0.28 | 0.00 | 1011.3 | ||
| 20260510093049 | 0 | 0.0 | 0.0 | 0.00 | 0.28 | 0.00 | 1011.2 | ||
| 20260510091548 | 0 | 0.0 | 0.0 | 0.00 | 0.28 | 0.00 | 1011.3 | ||
| 20260510090040 | 0 | 0.0 | 0.0 | 0.00 | 0.28 | 0.00 | 1011.4 | ||
| 20260510084534 | 0 | 0.0 | 0.0 | 0.00 | 0.28 | 0.00 | 1011.7 | ||
| 20260510083027 | 0 | 0.0 | 0.0 | 0.00 | 0.28 | 0.00 | 1012.1 | ||
| 20260510081521 | 0 | 0.0 | 0.0 | 0.00 | 0.28 | 0.00 | 1012.0 | ||
| 20260510080015 | 0 | 0.0 | 0.0 | 0.00 | 0.28 | 0.00 | 1012.2 | ||
| 20260510074510 | 44 | 153 | 1.0 | 2.0 | 0.00 | 0.28 | 0.00 | 1 | 1012.4 |
| 20260510073006 | 44 | 212 | 0.0 | 8.0 | 0.00 | 0.28 | 0.00 | 1 | 1012.5 |
| 20260510071607 | 45 | 1 | 1.0 | 5.0 | 0.00 | 0.28 | 0.00 | 1 | 1012.6 |
| 20260510070053 | 44 | 288 | 0.0 | 3.0 | 0.00 | 0.30 | 0.00 | 1 | 1012.0 |
| 20260510064554 | 45 | 149 | 0.0 | 5.0 | 0.00 | 0.30 | 0.00 | 1 | 1011.7 |
| 20260510063045 | 45 | 146 | 0.0 | 4.0 | 0.00 | 0.30 | 0.00 | 1 | 1011.8 |
| 20260510061535 | 45 | 96 | 0.0 | 3.0 | 0.00 | 0.30 | 0.00 | 1 | 1012.0 |
| 20260510060029 | 45 | 229 | 0.0 | 6.0 | 0.00 | 0.30 | 0.00 | 1 | 1012.2 |
| 20260510054524 | 45 | 334 | 0.0 | 2.0 | 0.00 | 0.30 | 0.00 | 1 | 1012.0 |
| 20260510053017 | 45 | 134 | 0.0 | 7.0 | 0.00 | 0.30 | 0.00 | 1 | 1011.4 |
| 20260510051511 | 45 | 75 | 2.0 | 8.0 | 0.00 | 0.30 | 0.00 | 1 | 1011.3 |
| 20260510050004 | 45 | 172 | 2.0 | 6.0 | 0.00 | 0.30 | 0.00 | 1 | 1011.3 |
| 20260510044559 | 45 | 142 | 2.0 | 8.0 | 0.00 | 0.30 | 0.00 | 1 | 1011.4 |
| 20260510043106 | 45 | 240 | 2.0 | 6.0 | 0.00 | 0.30 | 0.00 | 1 | 1011.5 |
| 20260510041549 | 45 | 108 | 3.0 | 6.0 | 0.00 | 0.30 | 0.00 | 1 | 1011.7 |
| 20260510040043 | 45 | 117 | 3.0 | 7.0 | 0.00 | 0.30 | 0.30 | 1 | 1011.5 |
| 20260510034537 | 45 | 129 | 3.0 | 9.0 | 0.00 | 0.30 | 0.30 | 1 | 1011.2 |
| 20260510033030 | 45 | 137 | 3.0 | 9.0 | 0.00 | 0.30 | 0.30 | 1 | 1011.2 |
| 20260510031522 | 45 | 129 | 2.0 | 11.0 | 0.00 | 0.30 | 0.30 | 1 | 1011.1 |
| 20260510030016 | 46 | 115 | 4.0 | 7.0 | 0.00 | 0.30 | 0.30 | 1 | 1011.3 |
| 20260510024512 | 46 | 102 | 2.0 | 8.0 | 0.00 | 0.30 | 0.30 | 1 | 1011.4 |
| 20260510023005 | 46 | 134 | 4.0 | 10.0 | 0.00 | 0.30 | 0.30 | 1 | 1011.4 |
| 20260510021602 | 46 | 148 | 3.0 | 8.0 | 0.00 | 0.30 | 0.30 | 1 | 1011.1 |
| 20260510020053 | 46 | 150 | 2.0 | 6.0 | 0.00 | 0.30 | 0.30 | 1 | 1011.3 |
| 20260510014546 | 46 | 186 | 4.0 | 10.0 | 0.00 | 0.30 | 0.30 | 1 | 1011.0 |
| 20260510013040 | 46 | 115 | 3.0 | 9.0 | 0.00 | 0.30 | 0.30 | 1 | 1011.2 |
| 20260510011534 | 46 | 208 | 3.0 | 7.0 | 0.00 | 0.30 | 0.30 | 1 | 1010.9 |
| 20260510010028 | 46 | 153 | 3.0 | 7.0 | 0.00 | 0.30 | 0.30 | 1 | 1010.8 |
| 20260510004522 | 46 | 142 | 4.0 | 11.0 | 0.00 | 0.30 | 0.30 | 1 | 1010.6 |
| 20260510003015 | 46 | 200 | 5.0 | 10.0 | 0.00 | 0.30 | 0.30 | 1 | 1010.4 |
| 20260510001513 | 46 | 110 | 4.0 | 12.0 | 0.00 | 0.30 | 0.30 | 1 | 1010.2 |
| 20260510000015 | 47 | 163 | 3.0 | 12.0 | 0.00 | 0.30 | 0.30 | 1 | 1010.3 |
| 20260509234504 | 47 | 145 | 3.0 | 11.0 | 0.00 | 0.30 | 0.30 | 1 | 1010.2 |
| 20260509233058 | 48 | 128 | 5.0 | 11.0 | 0.00 | 0.30 | 0.30 | 1 | 1010.1 |
| 20260509231557 | 47 | 150 | 4.0 | 9.0 | 0.00 | 0.30 | 0.30 | 1 | 1010.2 |
| 20260509230048 | 47 | 170 | 3.0 | 10.0 | 0.00 | 0.30 | 0.30 | 1 | 1010.3 |
| 20260509224553 | 47 | 111 | 3.0 | 13.0 | 0.00 | 0.30 | 0.30 | 1 | 1010.2 |
| 20260509223038 | 47 | 152 | 4.0 | 10.0 | 0.00 | 0.30 | 0.30 | 1 | 1010.3 |
| 20260509221536 | 48 | 120 | 3.0 | 9.0 | 0.00 | 0.30 | 0.30 | 1 | 1010.2 |
| 20260509220029 | 48 | 142 | 2.0 | 6.0 | 0.01 | 0.30 | 0.30 | 1 | 1010.3 |
| 20260509214522 | 48 | 141 | 2.0 | 11.0 | 0.01 | 0.30 | 0.30 | 1 | 1010.6 |
| 20260509213018 | 48 | 102 | 4.0 | 8.0 | 0.03 | 0.30 | 0.30 | 1 | 1010.9 |
| 20260509211610 | 48 | 165 | 1.0 | 8.0 | 0.05 | 0.30 | 0.30 | 1 | 1010.6 |
| 20260509210010 | 48 | 141 | 2.0 | 6.0 | 0.05 | 0.28 | 0.28 | 1 | 1010.8 |
| 20260509204601 | 48 | 134 | 3.0 | 9.0 | 0.08 | 0.28 | 0.28 | 1 | 1011.0 |
| 20260509203054 | 48 | 79 | 1.0 | 7.0 | 0.09 | 0.27 | 0.27 | 1 | 1011.1 |
| 20260509201555 | 48 | 150 | 3.0 | 10.0 | 0.09 | 0.25 | 0.25 | 1 | 1011.2 |
| 20260509200053 | 49 | 135 | 1.0 | 10.0 | 0.09 | 0.24 | 0.24 | 1 | 1011.5 |
| 20260509194535 | 49 | 236 | 2.0 | 9.0 | 0.09 | 0.21 | 0.21 | 1 | 1011.6 |
| 20260509193028 | 49 | 267 | 0.0 | 6.0 | 0.07 | 0.18 | 0.18 | 1 | 1011.8 |
| 20260509191523 | 49 | 143 | 1.0 | 6.0 | 0.06 | 0.16 | 0.16 | 1 | 1011.8 |
| 20260509190018 | 50 | 251 | 4.0 | 9.0 | 0.06 | 0.15 | 0.15 | 1 | 1012.1 |
| 20260509184520 | 50 | 314 | 3.0 | 8.0 | 0.06 | 0.12 | 0.12 | 1 | 1012.4 |
| 20260509183006 | 49 | 143 | 2.0 | 5.0 | 0.06 | 0.11 | 0.11 | 1 | 1012.2 |
| 20260509181602 | 49 | 243 | 2.0 | 5.0 | 0.05 | 0.10 | 0.10 | 1 | 1012.0 |
| 20260509180059 | 51 | 341 | 0.0 | 3.0 | 0.04 | 0.09 | 0.09 | 1 | 1011.9 |